Regional Weather Roundup
Issued by NWS

Home | Current Version | Previous Version | Graphics & Text | Print | Product List | Glossary On
Versions: 1 2 3 4 5 6 7 8 9 10 11 12 13 14 15 16 17 18 19 20 21 22 23 24 25 26 27 28 29 30 31 32 33 34 35 36 37 38 39 40 41 42 43 44 45 46 47 48 49 50
000
ASUS43 KFSD 170810
RWRSD

WEATHER ROUNDUP FOR SOUTH DAKOTA
NATIONAL WEATHER SERVICE SIOUX FALLS SD
200 AM CST FRI NOV 17 2017

NOTE: "FAIR" INDICATES FEW OR NO CLOUDS BELOW 12,000 FEET WITH NO
SIGNIFICANT WEATHER AND/OR OBSTRUCTIONS TO VISIBILITY.


SDZ001>005-009-010-012>017-170900-
NORTHWEST AND NORTH CENTRAL SOUTH DAKOTA

CITY           SKY/WX    TMP DP  RH WIND       PRES   REMARKS
BUFFALO          N/A     39  31  72 NW8       29.57R
FAITH            N/A     37  28  70 N8        29.61R
MOBRIDGE       CLOUDY    35  28  75 N7        29.54S WCI  29
$$

SDZ012>016-024>037-041>051-057-063-072>074-170900-
SOUTHWEST AND SOUTH CENTRAL SOUTH DAKOTA

CITY           SKY/WX    TMP DP  RH WIND       PRES   REMARKS
RAPID CTY ARPT PTCLDY    44  28  53 N21       29.63F
PIERRE         CLOUDY    42  32  67 NW18G24   29.52R
CUSTER         CLOUDY    44  30  57 S5        29.63F
ELLSWORTH AFB  PTCLDY    44  29  55 N18       29.63F
PHILIP         PTCLDY    45  29  53 N17       29.59R
PINE RIDGE     CLEAR     45  30  55 N16       29.63R
SPEARFISH      MOCLDY    41  28  60 W5        29.67S
WINNER         FAIR      51  36  56 S17       29.50F
$$

SDZ004>011-016>023-039-040-170900-
NORTHEAST SOUTH DAKOTA

CITY           SKY/WX    TMP DP  RH WIND       PRES   REMARKS
ABERDEEN       PTCLDY    36  29  75 NW9       29.56R
WATERTOWN      CLOUDY    37  29  72 S20       29.53F
BROOKINGS      CLOUDY    37  28  70 S21       29.60F
SISSETON         N/A     34  28  79 SE9       29.57S WCI  27
$$

SDZ017-020-022-023-036>040-048>070-170900-
SOUTHEAST SOUTH DAKOTA

CITY           SKY/WX    TMP DP  RH WIND       PRES   REMARKS
SIOUX FALLS    PTCLDY    40  30  67 S13G25    29.64F
HURON          CLOUDY    42  31  64 S17G30    29.51F
CHAMBERLAIN    CLOUDY    48  37  64 W3        29.50S
MITCHELL       CLOUDY    43  32  65 S16       29.55F
YANKTON        CLOUDY    37  30  75 E8        29.64F
$$

ABBREVIATIONS USED IN REMARKS
   TC - TEMPERATURE IN CELSIUS
  WCI - WIND CHILL INDEX
   HX - HEAT INDEX
  VSB - VISIBILITY





USA.gov is the U.S. government's official web portal to all federal, state and local government web resources and services.